軌道要素
Epoch 2023 Feb. 25.0 TT = JDT 2460000.5
T 2022 Nov. 28.47729 TT Rudenko
q 1.5952218 (2000.0) P Q
n 0.01246112 Peri. 249.93624 +0.67043540 -0.71935336
a 18.4260092 Node 205.08225 -0.41146559 -0.56434706
e 0.9134255 Incl. 154.60674 -0.61742403 -0.40502240
P 79.1
>From 694 observations 2022 Aug. 8-2023 May 28, mean residual 0".5.
|